Overview Statistics Trail Chart Weather Telemetry Raw packets
 

This is the latest recevied weather packets stored in our database for station/object KF6RAL-6. If no packets are shown the sender has not sent any weather packets the latest 10 day(s).

<< 68 69 70 71 72 73 74 >>
Time Temp. Humidity Pressure Rain* Wind** Luminosity Snow
1787941468 27.78° C 48% 1017 hPa 0 mm - - -
1787940626 26.67° C 54% 1016.6 hPa 0 mm - - -
1787940207 26.67° C 53% 1016.5 hPa 0 mm - - -
1787939784 27.22° C 53% 1017.1 hPa 0 mm - - -
1787939363 27.22° C 47% 1017 hPa 0 mm - - -
1787938942 27.78° C 42% 1017 hPa 0 mm - - -
1787938100 26.67° C 45% 1016.2 hPa 0 mm - - -
1787937258 26.67° C 47% 1016.4 hPa 0 mm - - -
1787936837 26.67° C 47% 1016.3 hPa 0 mm - - -
1787935996 26.11° C 47% 1016.2 hPa 0 mm - - -
1787935574 26.11° C 47% 1016 hPa 0 mm - - -
1787935153 26.11° C 49% 1016.2 hPa 0 mm - - -
1787934732 26.11° C 49% 1015.7 hPa 0 mm - - -
1787934311 25.56° C 48% 1015.8 hPa 0 mm - - -
1787933894 25.56° C 52% 1015.8 hPa 0 mm - - -
1787933471 25.56° C 50% 1015.8 hPa 0 mm - - -
1787933048 25° C 50% 1016.2 hPa 0 mm - - -
1787932626 25° C 55% 1015.7 hPa 0 mm - - -
1787932206 25° C 54% 1017.2 hPa 0 mm - - -
1787931784 25° C 54% 1017.4 hPa 0 mm - - -
1787931363 25° C 48% 1017 hPa 0 mm - - -
1787930942 24.44° C 50% 1016.6 hPa 0 mm - - -
1787930522 24.44° C 52% 1016.8 hPa 0 mm - - -
1787930101 23.89° C 55% 1016.7 hPa 0 mm - - -
1787929679 23.89° C 54% 1016.7 hPa 0 mm - - -

* Rain latest hour (hover to see other rain measurements)
** Current wind speed in m/s (hover to see current wind gust speed)